TimeEST,TemperatureF,Dew PointF,Humidity,Sea Level PressureIn,VisibilityMPH,Wind Direction,Wind SpeedMPH,Gust SpeedMPH,PrecipitationIn,Events,Conditions,WindDirDegrees,DateUTC
12:27 AM,55.4,51.8,88,29.90,10.0,SE,8.1,-,0.00,,Overcast,130,2013-01-13 05:27:00
12:51 AM,55.9,53.1,90,29.87,9.0,SE,9.2,-,0.00,Rain,Light Rain,130,2013-01-13 05:51:00
1:51 AM,60.1,53.1,78,29.85,10.0,SSE,11.5,-,0.00,,Overcast,150,2013-01-13 06:51:00
2:51 AM,60.1,53.1,78,29.83,10.0,SSE,12.7,-,0.00,,Overcast,160,2013-01-13 07:51:00
3:51 AM,60.1,53.1,78,29.81,10.0,South,11.5,19.6,N/A,,Overcast,170,2013-01-13 08:51:00
4:51 AM,60.1,53.1,78,29.80,10.0,South,9.2,-,N/A,,Overcast,180,2013-01-13 09:51:00
5:51 AM,62.1,54.0,75,29.80,10.0,South,10.4,17.3,N/A,,Overcast,190,2013-01-13 10:51:00
6:51 AM,62.1,54.0,75,29.81,10.0,South,9.2,-,N/A,,Mostly Cloudy,180,2013-01-13 11:51:00
7:51 AM,62.1,54.0,75,29.83,10.0,South,11.5,-,N/A,,Overcast,190,2013-01-13 12:51:00
8:51 AM,64.0,54.0,70,29.84,10.0,SSW,15.0,27.6,N/A,,Overcast,210,2013-01-13 13:51:00
9:51 AM,63.0,54.0,72,29.86,10.0,SW,16.1,23.0,0.00,,Overcast,220,2013-01-13 14:51:00
10:51 AM,63.0,55.0,75,29.86,10.0,SSW,12.7,19.6,0.00,Rain,Light Rain,200,2013-01-13 15:51:00
11:51 AM,64.0,54.0,70,29.85,10.0,SW,13.8,20.7,0.00,,Overcast,230,2013-01-13 16:51:00
12:28 PM,64.4,53.6,68,29.85,10.0,SW,15.0,23.0,N/A,,Overcast,220,2013-01-13 17:28:00
12:51 PM,64.0,54.0,70,29.83,10.0,SSW,11.5,18.4,N/A,,Overcast,200,2013-01-13 17:51:00
1:12 PM,64.4,53.6,68,29.81,10.0,SSW,11.5,19.6,N/A,,Overcast,200,2013-01-13 18:12:00
1:51 PM,66.0,54.0,65,29.79,10.0,SSW,9.2,18.4,N/A,,Overcast,200,2013-01-13 18:51:00
2:51 PM,64.9,54.0,68,29.84,10.0,West,6.9,-,N/A,,Overcast,260,2013-01-13 19:51:00
3:51 PM,57.2,51.8,82,29.88,10.0,NNW,12.7,-,N/A,,Overcast,330,2013-01-13 20:51:00
3:55 PM,57.2,51.8,82,29.87,10.0,NNW,11.5,-,N/A,,Overcast,330,2013-01-13 20:55:00
4:51 PM,55.0,50.0,83,29.86,10.0,NE,3.5,-,N/A,,Overcast,50,2013-01-13 21:51:00
5:51 PM,54.0,50.0,86,29.87,10.0,Calm,Calm,-,N/A,,Overcast,0,2013-01-13 22:51:00
6:51 PM,53.1,51.1,93,29.87,7.0,Calm,Calm,-,0.01,Rain,Light Rain,0,2013-01-13 23:51:00
7:51 PM,55.9,53.1,90,29.87,7.0,SSW,6.9,-,0.04,Rain,Light Rain,210,2013-01-14 00:51:00
8:35 PM,55.4,53.6,94,29.85,7.0,South,5.8,-,0.02,Rain,Light Rain,190,2013-01-14 01:35:00
8:51 PM,57.0,54.0,89,29.83,7.0,South,6.9,-,0.03,Rain,Light Rain,180,2013-01-14 01:51:00
9:51 PM,57.0,54.0,89,29.81,10.0,South,6.9,-,0.02,,Overcast,180,2013-01-14 02:51:00
10:51 PM,55.9,54.0,93,29.81,10.0,SSW,4.6,-,N/A,,Overcast,200,2013-01-14 03:51:00
11:16 PM,53.6,51.8,94,29.85,3.0,West,19.6,26.5,0.01,Rain,Rain,260,2013-01-14 04:16:00
11:27 PM,46.4,42.8,87,29.88,3.0,WNW,23.0,29.9,0.02,Rain,Light Rain,290,2013-01-14 04:27:00
11:38 PM,44.6,41.0,87,29.89,7.0,West,13.8,-,0.02,Rain,Light Rain,280,2013-01-14 04:38:00
11:56 PM,42.8,39.2,87,29.93,2.0,West,23.0,33.4,0.00,Rain,Light Rain,280,2013-01-14 04:56:00